Weather History for KMCW - October, 2011

Change the Weather History Date:

Tuesday, October 11, 2011

  Actual Average Record
Temperature  
Mean Temperature 60 °F 50 °F  
Max Temperature 76 °F 62 °F 85 °F (1928)
Min Temperature 44 °F 38 °F 17 °F (1987)
Degree Days  
Heating Degree Days 5 15  
Month to date heating degree days 49 146  
Since 1 July heating degree days 272 359  
Cooling Degree Days 0 0  
Month to date cooling degree days 15 2  
Year to date cooling degree days 789 612  
Growing Degree Days 10 (Base 50)    
Moisture  
Dew Point 51 °F    
Average Humidity 71    
Maximum Humidity 100    
Minimum Humidity 41    
Precipitation  
Precipitation 0.00 in 0.08 in 2.75 in (1986)
Month to date precipitation T 0.99  
Year to date precipitation 20.11 30.62  
Snow  
Snow 0.00 in 0.00 in 0.30 in (2006)
Month to date snowfall 0.0 0.0  
Since 1 July snowfall 0.0 0.0  
Since 1 September snowfall 0.0 0.0  
Snow Depth 0.00 in    
Sea Level Pressure  
Sea Level Pressure 29.92 in    
Wind  
Wind Speed 9 mph (South)    
Max Wind Speed 18 mph    
Max Gust Speed 23 mph    
Visibility 4 miles    
Events Fog    
T = Trace of Precipitation, MM = Missing Value Source: NWS Daily Summary

Daily Weather History Graph

Daily Weather History Graph

Search for Another Location

Airport or City:

Trip Planner

Search our weather history database for the weather conditions in past years. The results will help you decide how hot, cold, wet, or windy it might be!

Date:

Astronomy

Oct. 11, 2011 Rise Set
Actual Time 7:21 AM CDT 6:37 PM CDT
Civil Twilight 6:53 AM CDT 7:06 PM CDT
Nautical Twilight 6:20 AM CDT 7:38 PM CDT
Astronomical Twilight 5:47 AM CDT 8:11 PM CDT
Moon 6:07 PM CDT (10/11) 7:01 AM CDT (10/11)
Length of Visible Light 12h 12m
Length of Day
11h 15m
Full, 100% of the Moon is Illuminated
Oct 11
Full
Oct 11
Full
Oct 19
Last Quarter
Oct 26
New
Nov 2
First Quarter

Hourly Weather History & Observations

Time (CDT) Temp. Windchill Dew Point Humidity Pressure Visibility Wind Dir Wind Speed Gust Speed Precip Events Conditions
12:07 AM 48.2 °F - 48.2 °F 100% 29.98 in 0.5 mi South 4.6 mph - N/A Fog Fog
12:22 AM 48.2 °F - 48.2 °F 100% 29.98 in 0.2 mi South 4.6 mph - N/A Fog Fog
12:36 AM 46.4 °F 45.2 °F 46.4 °F 100% 29.98 in 0.2 mi South 3.5 mph - N/A Fog Fog
12:53 AM 46.9 °F - 46.9 °F 100% 29.96 in 0.2 mi SSE 5.8 mph - N/A Fog Fog
1:53 AM 46.9 °F - 46.9 °F 100% 29.95 in 0.2 mi South 4.6 mph - N/A Fog Fog
2:03 AM 44.6 °F 41.4 °F 44.6 °F 100% 29.97 in 0.2 mi SSE 5.8 mph - N/A Fog Fog
2:16 AM 46.4 °F 43.5 °F 46.4 °F 100% 29.97 in 0.2 mi South 5.8 mph - N/A Fog Fog
2:53 AM 46.0 °F 43.1 °F 46.0 °F 100% 29.95 in 0.2 mi South 5.8 mph - N/A Fog Fog
3:46 AM 46.4 °F 44.3 °F 46.4 °F 100% 29.96 in 0.2 mi South 4.6 mph - N/A Fog Fog
3:53 AM 46.0 °F 43.9 °F 46.0 °F 100% 29.94 in 0.2 mi South 4.6 mph - N/A Fog Fog
4:53 AM 48.2 °F - 48.2 °F 100% 29.96 in 0.2 mi SSE 4.6 mph - N/A Fog Fog
5:53 AM 48.0 °F - 48.0 °F 100% 29.96 in 0.2 mi South 4.6 mph - 0.01 in Fog Fog
6:53 AM 48.0 °F - 48.0 °F 100% 29.96 in 0.2 mi South 6.9 mph - N/A Fog Fog
7:53 AM 50.0 °F - 50.0 °F 100% 29.97 in 0.2 mi South 4.6 mph - N/A Fog Fog
9:35 AM 55.4 °F - 53.6 °F 94% 29.96 in 0.2 mi SSE 6.9 mph - N/A Fog Fog
9:53 AM 55.0 °F - 55.0 °F 100% 29.95 in 0.2 mi South 9.2 mph - N/A Fog Fog
10:23 AM 57.2 °F - 57.2 °F 100% 29.95 in 0.2 mi South 8.1 mph - N/A Fog Fog
10:30 AM 57.2 °F - 57.2 °F 100% 29.95 in 0.5 mi South 6.9 mph - N/A Fog Fog
10:41 AM 57.2 °F - 57.2 °F 100% 29.95 in 1.5 mi South 9.2 mph - N/A   Overcast
10:51 AM 57.2 °F - 57.2 °F 100% 29.95 in 2.0 mi South 6.9 mph - N/A   Overcast
10:53 AM 59.0 °F - 57.9 °F 96% 29.94 in 2.0 mi South 9.2 mph - N/A   Overcast
11:00 AM 59.0 °F - 57.2 °F 94% 29.94 in 3.0 mi South 9.2 mph - N/A   Overcast
11:24 AM 64.4 °F - 57.2 °F 77% 29.94 in 5.0 mi SSE 8.1 mph - N/A   Haze
11:53 AM 71.1 °F - 59.0 °F 66% 29.92 in 7.0 mi South 10.4 mph 17.3 mph N/A   Partly Cloudy
12:53 PM 73.0 °F - 54.0 °F 51% 29.91 in 10.0 mi South 12.7 mph 19.6 mph N/A   Scattered Clouds
1:53 PM 73.0 °F - 55.0 °F 53% 29.89 in 10.0 mi SSW 15.0 mph 21.9 mph N/A   Partly Cloudy
2:53 PM 73.9 °F - 51.1 °F 45% 29.86 in 10.0 mi South 10.4 mph - N/A   Clear
3:53 PM 75.0 °F - 52.0 °F 44% 29.85 in 10.0 mi SSE 16.1 mph 21.9 mph N/A   Partly Cloudy
4:53 PM 73.9 °F - 48.9 °F 41% 29.83 in 10.0 mi SSE 16.1 mph - N/A   Partly Cloudy
5:53 PM 71.1 °F - 48.0 °F 44% 29.83 in 10.0 mi South 12.7 mph - N/A   Partly Cloudy
6:53 PM 66.9 °F - 50.0 °F 54% 29.83 in 10.0 mi SSE 9.2 mph - N/A   Scattered Clouds
7:53 PM 64.0 °F - 50.0 °F 60% 29.83 in 10.0 mi SSE 6.9 mph - N/A   Mostly Cloudy
8:53 PM 63.0 °F - 50.0 °F 63% 29.84 in 10.0 mi SSE 6.9 mph - N/A   Mostly Cloudy
9:53 PM 62.1 °F - 51.1 °F 67% 29.84 in 10.0 mi SSE 9.2 mph - N/A   Mostly Cloudy
10:53 PM 60.1 °F - 51.1 °F 72% 29.82 in 10.0 mi SSE 10.4 mph - N/A   Partly Cloudy
11:53 PM 60.1 °F - 51.1 °F 72% 29.81 in 10.0 mi SE 9.2 mph - N/A   Clear